Location: Abraham Lincoln Continuation High School
(33.9711°N, 117.3662°W)
Time: 04:34:55
(UTC+00:00)

H-2A R/B - Pass Details

Date: 21 September 2020
Orbit: 734 x 836 km, 98.2° (Epoch: 25 October)

Event Time Altitude Azimuth Distance (km) Brightness Sun altitude
Rises 02:31:00 0° 149° (SSE) 3,153 4.8 -9.7°
Reaches altitude 10° 02:33:21 10° 142° (SE) 2,240 4.0 -10.2°
Maximum altitude 02:37:58 42° 72° (ENE) 1,061 2.3 -11.1°
Drops below altitude 10° 02:42:41 10° 3° (N) 2,296 4.6 -12.1°
Sets 02:45:07 0° 356° (N) 3,241 5.4 -12.6°
